Overview Statistics Trail Chart Weather Telemetry Raw packets
 

This is the latest recevied weather packets stored in our database for station/object N6GPM. If no packets are shown the sender has not sent any weather packets the latest 10 day(s).

<< 74 75 76 77 78 79 80 >>
Time Temp. Humidity Pressure Rain* Wind** Luminosity Snow
1788148520 25° C 56% 1016.4 hPa 0 mm - 0 W/m² -
1788148216 25° C 55% 1016.4 hPa 0 mm - 0 W/m² -
1788147910 25° C 55% 1016.3 hPa 0 mm - 0 W/m² -
1788147605 25° C 55% 1016.2 hPa 0 mm - 0 W/m² -
1788147301 25.56° C 55% 1016.2 hPa 0 mm - 0 W/m² -
1788146995 25.56° C 54% 1016.1 hPa 0 mm - 0 W/m² -
1788146690 25.56° C 54% 1016.1 hPa 0 mm - 0 W/m² -
1788146385 25.56° C 52% 1015.8 hPa 0 mm - 0 W/m² -
1788146085 25.56° C 52% 1015.9 hPa 0 mm - 0 W/m² -
1788145784 26.11° C 51% 1015.9 hPa 0 mm - 0 W/m² -
1788145484 26.11° C 50% 1015.7 hPa 0 mm - 0 W/m² -
1788145182 26.11° C 49% 1015.3 hPa 0 mm - 0 W/m² -
1788144881 26.67° C 48% 1015.4 hPa 0 mm - 0 W/m² -
1788144577 26.67° C 46% 1015.2 hPa 0 mm - 0 W/m² -
1788144277 27.22° C 45% 1015.4 hPa 0 mm - 0 W/m² -
1788143971 27.22° C 44% 1015.2 hPa 0 mm - 0 W/m² -
1788143670 27.78° C 43% 1015.2 hPa 0 mm - 0 W/m² -
1788143365 27.78° C 39% 1015.3 hPa 0 mm - 1 W/m² -
1788143064 27.78° C 39% 1014.9 hPa 0 mm - 2 W/m² -
1788142764 28.33° C 39% 1015.2 hPa 0 mm - 4 W/m² -
1788142458 28.33° C 38% 1014.8 hPa 0 mm - 7 W/m² -
1788142155 28.89° C 35% 1015 hPa 0 mm - 12 W/m² -
1788141854 28.89° C 36% 1015 hPa 0 mm - 17 W/m² -
1788141549 28.89° C 37% 1014.9 hPa 0 mm - 23 W/m² -
1788141245 29.44° C 37% 1014.7 hPa 0 mm - 28 W/m² -

* Rain latest hour (hover to see other rain measurements)
** Current wind speed in m/s (hover to see current wind gust speed)